Air Force Academy, CO

10:31 AM MST on November 22, 2019 (GMT -0700)
Usaf Academy

Weather History for KAFF - May, 2019

Change the Weather History Date:

Sunday, May 5, 2019

  Actual Average Record
Temperature  
Mean Temperature 55 °F -  
Max Temperature 69 °F 61 °F 89 °F (2000)
Min Temperature 41 °F 35 °F 26 °F (1999)
Degree Days  
Heating Degree Days 10    
Growing Degree Days 5 (Base 50)    
Moisture  
Dew Point 21 °F    
Average Humidity 24    
Maximum Humidity 48    
Minimum Humidity 13    
Precipitation  
Precipitation 0.00 in - - ()
Sea Level Pressure  
Sea Level Pressure 29.73 in    
Wind  
Wind Speed 9 mph (West)    
Max Wind Speed 20 mph    
Max Gust Speed 32 mph    
Visibility 10 miles    
Events      
Averages and records for this station are not official NWS values.
T = Trace of Precipitation, MM = Missing Value Source: NWS Daily Summary

Daily Weather History Graph

Daily Weather History Graph

Search for Another Location

Airport or City:

Astronomy

May. 05, 2019 Rise Set
Actual Time 5:56 AM MDT 7:55 PM MDT
Civil Twilight 5:27 AM MDT 8:24 PM MDT
Nautical Twilight 4:52 AM MDT 9:00 PM MDT
Astronomical Twilight 4:13 AM MDT 9:38 PM MDT
Moon 6:42 AM MDT (5/5) 8:51 PM MDT (5/5)
Length of Visible Light 14h 57m
Length of Day
13h 58m
New Moon, 1% of the Moon is Illuminated
May 5
New Moon
May 11
First Quarter
May 18
Full
May 26
Last Quarter
Jun 3
New

Hourly Weather History & Observations

Time (MDT) Temp. Windchill Dew Point Humidity Pressure Visibility Wind Dir Wind Speed Gust Speed Precip Events Conditions
12:58 AM 42.1 °F 37.7 °F 23.7 °F 48% 29.80 in 10.0 mi North 6.9 mph - N/A   Partly Cloudy
1:58 AM 46.9 °F - 20.7 °F 35% 29.77 in 10.0 mi Calm Calm - N/A   Partly Cloudy
2:58 AM 46.4 °F 44.3 °F 22.1 °F 38% 29.77 in 10.0 mi North 4.6 mph - N/A   Mostly Cloudy
3:58 AM 43.7 °F 41.1 °F 22.6 °F 43% 29.76 in 10.0 mi NNW 4.6 mph - N/A   Clear
4:58 AM 42.8 °F 39.3 °F 21.9 °F 44% 29.76 in 10.0 mi North 5.8 mph - N/A   Clear
5:58 AM 41.2 °F 37.3 °F 22.5 °F 47% 29.80 in 10.0 mi NNW 5.8 mph - N/A   Partly Cloudy
6:58 AM 48.4 °F - 22.6 °F 36% 29.79 in 10.0 mi NNE 6.9 mph - N/A   Mostly Cloudy
7:58 AM 56.5 °F - 23.7 °F 28% 29.78 in 10.0 mi West 9.2 mph - N/A   Clear
8:58 AM 60.8 °F - 22.8 °F 23% 29.78 in 10.0 mi WNW 9.2 mph - N/A   Clear
9:58 AM 63.3 °F - 21.6 °F 20% 29.77 in 10.0 mi WSW 10.4 mph - N/A   Partly Cloudy
10:58 AM 65.8 °F - 19.8 °F 17% 29.76 in 10.0 mi SW 10.4 mph 16.1 mph N/A   Partly Cloudy
11:04 AM 66.2 °F - 21.2 °F 18% 29.76 in 10.0 mi WSW 19.6 mph 27.6 mph N/A   Scattered Clouds
11:45 AM 68.0 °F - 17.6 °F 15% 29.75 in 10.0 mi West 16.1 mph 25.3 mph N/A   Scattered Clouds
11:58 AM 66.9 °F - 17.8 °F 15% 29.76 in 10.0 mi WNW 10.4 mph 24.2 mph N/A   Scattered Clouds
12:05 PM 68.0 °F - 15.8 °F 13% 29.74 in 10.0 mi West 13.8 mph - N/A   Scattered Clouds
12:58 PM 65.8 °F - 19.8 °F 17% 29.73 in 10.0 mi South 6.9 mph - N/A   Scattered Clouds
1:56 PM 68.0 °F - 19.4 °F 16% 29.68 in 10.0 mi West 16.1 mph 19.6 mph N/A   Mostly Cloudy
1:58 PM 67.1 °F - 19.4 °F 16% 29.68 in 10.0 mi WNW 15.0 mph 19.6 mph N/A   Mostly Cloudy
2:35 PM 69.8 °F - 21.2 °F 16% 29.66 in 10.0 mi SSW 12.7 mph 18.4 mph N/A   Mostly Cloudy
2:45 PM 68.0 °F - 19.4 °F 16% 29.67 in 10.0 mi WSW 12.7 mph - N/A   Mostly Cloudy
2:58 PM 69.3 °F - 19.6 °F 15% 29.66 in 10.0 mi SSW 9.2 mph - N/A   Mostly Cloudy
3:09 PM 68.0 °F - 15.8 °F 13% 29.68 in 10.0 mi West 19.6 mph 32.2 mph N/A   Mostly Cloudy
3:11 PM 68.0 °F - 17.6 °F 15% 29.67 in 10.0 mi SW 12.7 mph 32.2 mph N/A   Mostly Cloudy
3:32 PM 68.0 °F - 15.8 °F 13% 29.66 in 10.0 mi WSW 13.8 mph - N/A   Scattered Clouds
3:58 PM 68.2 °F - 18.7 °F 15% 29.67 in 10.0 mi South 12.7 mph - N/A   Mostly Cloudy
4:58 PM 66.4 °F - 20.3 °F 17% 29.68 in 10.0 mi South 8.1 mph - N/A   Scattered Clouds
5:58 PM 64.6 °F - 18.7 °F 17% 29.71 in 10.0 mi East 6.9 mph 18.4 mph N/A   Scattered Clouds
6:58 PM 64.0 °F - 18.3 °F 17% 29.67 in 10.0 mi NW 4.6 mph - N/A   Mostly Cloudy
7:58 PM 61.0 °F - 22.8 °F 23% 29.69 in 10.0 mi South 10.4 mph - N/A   Scattered Clouds
8:27 PM 60.8 °F - 24.8 °F 25% 29.71 in 10.0 mi SSW 17.3 mph - N/A   Overcast
8:41 PM 59.0 °F - 26.6 °F 29% 29.71 in 10.0 mi South 12.7 mph 25.3 mph N/A   Scattered Clouds
8:58 PM 57.6 °F - 25.5 °F 29% 29.72 in 10.0 mi South 8.1 mph - N/A   Clear
9:58 PM 57.2 °F - 25.2 °F 29% 29.73 in 10.0 mi North 4.6 mph - N/A   Scattered Clouds
10:58 PM 51.1 °F - 26.4 °F 38% 29.73 in 10.0 mi NNW 5.8 mph - N/A   Clear
11:58 PM 48.7 °F - 26.1 °F 41% 29.75 in 10.0 mi Calm Calm - N/A   Clear